Temp
17 19 19 20 19 19 19 19 19 18 18 18 17 16 16 15 15 14 13 14 14 13 13 13 12 13 14 16 17 17 17 17 16 15 14 14 15 15 15 16 16 15 15 15
18 19 19 19 18 19 19 19 19 18 18 19 17 17 16 15 14 13 12 13 13 13 14 13 12 12 12 14 15 17 17 17 16 16 16 15 16 16 17 16 16 16 15 15
18 20 19 20 19 20 19 18 19 20 18 17 18 18 16 16 14 14 13 13 13 12 13 13 12 11 11 11 14 15 16 17 16 16 16 15 15 16 16 17 17 17 16 16
18 19 20 20 20 19 19 18 19 19 18 19 17 19 17 15 14 13 13 12 12 12 12 12 12 11 10 10 13 14 15 15 16 16 15 15 15 15 16 17 17 16 16 16
20 20 20 20 20 19 20 18 18 18 17 17 17 19 17 15 14 13 12 12 12 12 12 12 11 11 11 10 11 13 13 14 14 15 15 15 15 16 16 16 16 17 17 16
18 17 19 20 18 19 16 17 15 14 15 18 17 18 17 14 14 13 12 12 11 11 12 11 11 11 11 10 10 11 12 12 13 13 13 14 14 15 15 15 16 16 16 16
16 18 18 19 19 18 17 16 18 19 19 19 15 17 14 13 12 12 11 11 11 11 11 11 10 10 10 10 10 10 11 11 12 13 13 13 13 13 13 14 14 14 15 16
15 19 18 18 19 19 17 17 18 20 19 18 16 16 14 12 12 11 11 11 11 11 11 10 10 10 10 10 10 10 10 11 12 12 13 13 13 13 13 13 13 13 13 14
14 17 16 17 17 18 17 17 16 15 14 16 15 13 13 12 12 11 11 11 10 10 10 10 10 9 9 9 9 10 11 11 12 12 12 13 13 13 12 13 13 13 13 13
13 15 16 16 17 16 17 16 17 15 18 18 15 14 15 12 12 11 11 10 10 10 10 9 9 9 9 9 10 11 11 11 11 11 12 12 12 12 12 13 13 13 13 13
11 13 16 15 15 15 15 16 14 14 14 18 17 16 12 12 12 11 10 10 10 10 9 9 9 9 9 9 10 10 10 10 11 11 11 11 11 12 12 12 12 12 12 13
11 11 13 15 13 13 12 13 12 15 15 13 14 14 10 10 11 10 10 10 10 9 9 9 8 9 9 9 9 9 10 10 10 10 11 11 11 11 11 11 11 11 12 12
11 11 13 15 14 13 12 12 13 11 11 13 15 14 9 9 9 9 10 10 9 9 10 9 9 8 8 8 8 9 9 9 10 10 10 10 10 10 10 10 11 11 11 11
10 10 12 14 13 11 11 11 11 12 13 13 13 10 9 9 9 9 9 9 9 9 9 9 9 9 8 8 7 7 8 8 8 9 9 9 9 9 9 9 10 10 10 10
8 9 8 9 9 10 10 10 10 10 11 12 11 10 9 9 9 9 8 9 9 9 9 8 8 8 8 7 7 6 6 6 7 7 7 7 8 8 8 8 9 9 9 9
5 8 7 8 8 8 9 8 9 8 8 9 8 8 9 8 8 8 8 8 8 8 8 7 7 7 6 6 6 6 5 5 5 5 6 5 5 6 6 7 7 8 8 8
5 6 6 8 6 7 9 7 7 8 7 8 9 8 8 8 9 9 9 8 7 7 6 6 6 5 5 4 4 4 4 4 4 5 4 4 4 4 5 5 5 5 6 6
5 5 6 7 6 9 7 8 8 8 8 8 8 8 8 8 9 8 8 7 6 6 5 5 4 3 3 3 3 2 2 3 3 3 3 3 3 3 3 4 4 4 4 5
5 5 6 6 6 7 7 8 8 8 8 8 8 9 9 9 8 9 6 6 5 4 4 3 2 2 2 1 1 1 1 2 2 2 2 2 2 2 2 2 3 3 3 3
5 4 6 5 7 8 7 8 7 8 7 9 9 8 8 8 7 8 5 5 4 3 2 1 1 1 1 0 0 0 1 1 1 1 1 1 1 1 1 2 2 2 2 3
5 5 4 5 6 6 7 8 7 7 6 8 8 8 7 7 7 5 4 3 2 1 1 0 -0 -0 -0 -1 -1 -1 -0 -0 -1 -1 -1 -0 0 1 1 1 1 1 2 2
5 5 5 5 5 5 8 8 7 8 7 7 7 6 7 6 5 4 3 2 1 -0 -0 -1 -1 -1 -1 -1 -2 -2 -2 -2 -2 -2 -2 -2 -1 -1 -0 -0 0 1 1 1
4 4 4 4 5 5 7 7 7 6 6 5 6 6 5 5 4 2 1 0 -0 -1 -1 -1 -2 -1 -1 -2 -2 -2 -3 -3 -3 -2 -2 -1 -1 -1 -1 -0 0 0 0 0
3 2 3 4 5 4 4 4 4 4 4 5 5 4 3 3 2 1 0 -1 -1 -2 -2 -2 -1 -1 -2 -3 -3 -3 -3 -3 -2 -2 -2 -2 -2 -2 -2 -2 -1 -1 -1 -1
3 3 2 1 2 3 4 4 4 5 4 4 3 3 2 2 1 -0 -1 -1 -2 -2 -2 -2 -2 -2 -3 -3 -3 -4 -4 -3 -3 -3 -2 -2 -3 -3 -2 -2 -3 -2 -2 -2
1 2 2 2 3 4 4 4 4 4 4 3 2 2 1 0 -0 -1 -2 -2 -2 -2 -3 -3 -3 -3 -3 -3 -3 -4 -4 -4 -3 -3 -3 -3 -3 -3 -3 -3 -3 -3 -3 -2
Height
818 822 826 822 823 825 828 832 836 833 828 832 841 843 842 839 834 835 833 828 824 820 817 811 803 796 797 800 804 806 810 813 818 822 826 830 831 833 835 837 840 842 843 845
824 826 821 820 824 825 829 834 835 832 829 829 840 844 845 843 845 845 841 834 830 823 816 812 806 801 798 798 801 804 807 811 815 819 821 825 827 829 831 834 836 838 840 841
826 820 818 820 824 827 830 835 835 832 832 835 837 843 846 846 847 845 844 842 836 831 825 818 811 807 803 799 800 803 807 810 814 817 820 823 826 827 828 829 831 833 836 837
823 817 816 819 821 826 831 827 827 831 837 840 842 844 848 852 851 850 849 845 842 837 831 825 819 813 809 805 802 804 807 810 813 816 819 821 823 825 826 828 830 832 833 833
821 819 820 821 820 820 825 824 831 833 842 842 844 841 847 849 854 857 856 853 849 844 839 833 828 823 818 811 808 808 809 811 814 816 818 820 822 823 824 826 827 827 828 829
822 820 819 818 821 820 827 831 840 847 848 849 847 844 850 856 859 862 863 859 855 850 846 841 836 830 825 820 816 814 813 814 816 817 818 820 820 821 822 823 823 824 825 825
833 823 819 817 823 824 828 837 840 838 841 839 849 848 859 864 864 864 865 863 861 856 851 847 842 837 834 829 826 823 821 820 820 819 819 819 819 820 820 820 820 820 820 820
847 835 826 822 823 827 832 834 840 838 840 842 848 850 859 863 866 868 868 868 864 860 857 854 850 846 842 838 834 831 829 827 826 824 822 821 819 819 818 818 817 816 816 815
850 836 829 824 823 826 834 837 838 848 858 849 851 864 864 867 868 868 869 868 868 865 863 859 856 851 848 844 841 839 836 834 831 830 828 825 823 821 820 818 816 814 812 811
852 848 833 829 825 829 828 835 838 847 842 843 851 854 850 865 867 869 870 870 869 867 864 862 859 856 853 849 846 843 840 838 837 834 832 830 828 825 823 820 817 815 812 809
856 853 840 834 840 842 840 840 848 848 850 838 842 845 860 859 863 868 871 872 871 869 867 864 861 858 856 853 850 847 844 842 840 838 836 833 830 828 825 822 819 816 813 810
860 862 856 843 845 845 846 850 855 848 849 859 855 850 868 867 865 867 871 872 872 870 869 866 863 860 857 855 852 850 848 845 843 842 839 836 833 829 826 823 820 818 814 811
862 863 859 847 848 846 854 857 854 861 864 854 848 848 870 870 871 872 872 872 872 870 868 866 864 861 859 857 855 853 850 848 845 843 840 837 834 830 827 824 821 818 815 812
862 868 861 854 854 862 858 860 860 856 858 851 849 862 869 871 871 873 874 874 872 870 868 865 864 862 860 858 856 854 852 849 846 843 840 837 834 831 828 825 822 819 815 812
875 871 875 869 868 869 865 862 865 864 859 854 856 860 868 871 873 874 875 873 872 870 869 868 865 863 861 859 857 855 852 849 847 843 840 837 834 831 828 824 821 818 815 812
887 879 884 877 873 876 870 870 869 873 872 869 870 872 870 873 873 875 874 873 873 872 871 870 868 866 863 860 857 854 852 848 845 842 839 837 833 830 826 823 820 816 813 810
893 889 887 880 883 875 868 877 876 877 877 874 868 873 873 875 874 873 873 875 874 874 873 871 869 867 865 862 859 855 851 848 845 841 838 835 831 828 825 822 818 814 811 808
893 893 889 887 885 870 879 872 872 875 875 875 875 875 875 875 874 873 873 874 875 874 873 871 869 866 864 862 858 855 851 847 843 839 836 833 829 826 822 819 816 812 809 805
891 891 889 892 891 881 876 873 874 874 879 877 875 873 871 872 873 871 875 875 875 874 873 872 870 867 863 860 857 854 850 847 844 840 836 831 828 823 820 816 813 809 806 802
892 895 892 895 885 872 875 873 873 872 880 874 873 873 873 874 876 870 873 873 874 874 873 870 868 866 863 860 856 853 849 846 842 839 835 831 827 823 818 814 810 807 803 800
896 896 901 894 887 878 873 871 871 877 882 873 872 869 868 870 869 872 873 873 874 873 872 870 868 865 862 859 856 853 849 845 842 838 833 829 824 820 816 812 808 803 800 797
890 894 894 894 890 886 870 871 879 874 870 870 869 867 867 867 869 871 872 873 873 872 870 869 867 865 862 859 855 852 849 845 840 835 830 826 822 818 814 810 806 802 798 794
897 890 893 890 880 874 870 870 869 868 868 867 866 864 864 865 867 869 870 871 871 870 869 868 866 863 861 858 855 851 847 843 839 834 829 824 820 816 812 808 804 801 797 794
888 890 889 887 876 873 871 869 869 867 866 862 862 862 864 866 867 868 869 869 869 868 867 866 864 862 860 858 855 851 847 842 838 834 830 825 821 817 813 809 806 802 799 796
888 888 887 887 876 872 866 866 865 863 861 861 862 863 864 865 867 867 867 867 867 866 865 864 863 861 859 856 854 850 846 843 839 835 831 827 824 820 816 813 809 806 803 800
882 880 883 878 867 867 864 861 861 860 859 858 859 861 862 863 864 865 865 865 865 864 863 863 861 859 857 855 853 850 846 842 839 835 832 829 826 823 820 816 812 810 807 804
Wind_Speed
4 4 2 2 3 3 4 2 1 2 1 5 5 8 11 11 17 18 16 17 17 17 19 22 22 16 8 19 22 24 25 26 27 25 23 22 23 23 22 21 19 17 16 15
5 1 2 2 3 2 2 1 2 2 3 4 4 9 9 13 11 12 14 17 18 19 20 27 28 24 15 7 18 22 23 24 27 26 24 21 19 21 23 20 20 20 18 17
4 2 0 2 2 1 1 2 2 1 2 4 4 3 4 5 12 14 16 13 17 18 19 21 29 29 23 12 7 16 19 21 22 23 23 20 17 16 15 18 20 20 19 19
2 2 2 2 2 5 1 2 2 2 2 2 1 1 1 4 12 15 15 16 16 18 19 22 27 30 29 24 10 3 9 14 16 18 20 22 19 14 16 16 16 16 19 21
1 1 2 1 1 3 3 2 2 1 2 1 0 2 1 2 9 11 13 14 15 16 17 19 27 28 30 31 24 15 6 1 6 11 15 17 19 20 20 17 15 14 14 16
2 3 1 1 2 2 5 4 5 3 2 0 2 2 0 2 1 4 9 13 14 15 17 23 26 29 32 34 34 31 23 16 7 2 7 11 15 17 19 19 19 18 16 16
6 2 3 1 2 2 3 3 2 0 0 2 1 3 2 2 5 6 8 10 12 14 15 17 24 26 29 32 32 31 35 34 27 17 7 5 8 11 14 15 17 17 17 18
3 2 4 6 2 2 2 3 3 3 2 1 1 3 2 5 6 6 7 8 11 14 14 16 21 23 25 28 32 33 32 32 32 31 31 27 19 9 8 10 13 16 17 18
3 2 4 3 2 2 0 1 1 4 1 0 3 3 2 5 6 7 8 10 11 12 13 14 20 22 23 25 28 29 31 31 31 28 28 29 27 25 23 20 15 12 11 14
1 3 2 4 1 4 1 3 1 2 2 3 2 4 4 9 8 6 6 7 8 9 11 13 18 20 22 25 28 31 30 28 29 27 25 23 25 23 23 22 21 19 18 15
2 1 5 1 5 1 4 2 4 2 1 2 1 2 2 4 9 8 5 5 6 8 9 9 14 17 20 25 27 27 29 29 29 27 25 23 22 23 23 23 22 20 19 18
3 2 3 1 4 2 3 3 3 2 1 1 1 1 2 2 7 8 6 5 5 5 6 9 12 15 19 22 26 26 27 27 27 26 24 22 21 22 23 23 22 21 20 19
3 1 2 3 3 2 5 3 2 3 1 4 2 2 2 5 6 4 6 4 4 5 7 8 11 15 17 19 22 25 26 26 25 25 24 23 22 22 23 21 22 21 21 20
1 1 3 4 1 1 3 3 2 1 2 2 4 6 6 5 6 5 4 4 5 8 9 9 13 15 16 17 18 21 23 25 25 24 23 22 22 21 22 21 20 21 20 21
4 1 2 3 4 3 4 4 2 4 4 5 3 2 6 5 4 3 3 5 8 9 10 11 11 17 19 20 21 20 19 22 25 24 20 20 21 21 22 22 22 22 21 20
6 1 3 4 4 4 4 2 2 1 2 1 4 3 2 2 4 3 3 5 7 7 9 10 13 16 18 20 22 22 22 23 22 20 18 19 21 21 23 24 24 23 23 22
3 2 2 3 5 7 2 1 3 2 1 2 2 1 1 2 2 2 3 3 4 6 8 10 13 16 17 19 20 22 24 23 21 20 18 19 21 21 21 21 22 23 24 24
1 1 1 2 5 2 0 1 3 5 3 3 3 3 3 0 3 3 2 4 5 7 9 11 15 19 18 19 17 21 21 21 21 21 22 22 22 22 24 22 22 22 22 22
3 2 1 1 2 4 1 2 1 1 2 5 3 1 4 5 5 1 4 5 6 9 10 12 14 16 19 19 20 20 19 19 19 19 22 23 24 24 23 24 23 22 22 21
4 4 2 1 1 3 2 1 3 3 2 5 4 5 6 3 3 5 5 9 10 9 13 16 18 16 16 18 19 20 19 20 19 21 21 20 21 21 24 22 22 23 21 21
1 1 3 3 3 5 2 2 2 4 2 3 4 9 9 5 4 1 5 6 8 11 12 13 13 15 16 16 16 17 17 18 20 22 22 21 21 22 21 21 22 22 21 21
2 2 3 2 3 5 1 3 1 7 3 8 8 8 5 3 1 1 1 5 8 10 11 12 12 13 14 15 15 16 16 19 20 21 20 19 18 18 17 17 17 18 18 18
3 5 3 6 3 4 5 6 5 2 7 10 4 3 4 3 1 3 3 5 7 8 10 11 12 11 11 14 14 16 18 19 20 20 20 20 20 19 18 17 17 17 17 19
4 3 3 2 4 7 6 4 5 5 6 4 4 4 2 2 1 3 5 5 6 6 8 9 8 8 11 13 14 14 17 18 17 17 18 19 19 20 19 19 19 19 20 20
4 4 3 5 8 6 8 5 5 5 4 3 3 2 3 3 3 3 4 5 5 6 7 7 7 6 10 11 11 14 16 15 15 15 16 17 17 18 18 18 19 19 20 21
5 5 4 6 8 5 6 6 4 6 6 7 6 3 5 5 3 4 5 5 5 6 5 6 6 5 8 9 10 12 14 13 12 14 14 17 16 16 17 16 16 16 18 19
Wind_Direction
9 62 118 229 173 137 131 122 224 267 288 84 77 69 34 17 34 23 17 17 15 13 359 9 9 11 245 234 226 221 218 219 215 212 214 223 229 235 239 242 244 247 251 250
22 73 192 100 123 124 109 95 283 288 355 104 126 89 66 39 34 26 18 19 13 11 15 13 14 16 16 258 230 226 224 222 217 217 217 220 232 242 247 249 249 249 249 250
144 183 345 189 135 106 208 177 219 158 35 43 125 84 56 50 43 31 28 22 22 18 16 16 18 18 17 14 244 233 231 230 224 222 223 225 232 242 243 244 246 248 250 251
212 281 135 128 163 137 340 193 130 124 83 203 5 211 85 68 43 33 22 21 20 16 20 23 23 24 23 21 38 218 236 235 233 232 231 231 233 238 257 262 266 270 261 255
325 40 63 53 223 170 178 93 88 76 111 109 257 145 161 335 39 23 21 21 23 23 25 24 27 30 33 34 45 55 67 147 234 239 241 244 248 256 265 272 275 272 272 264
263 294 201 203 63 72 141 82 54 71 93 248 286 169 287 9 56 45 30 29 25 24 27 33 34 35 36 40 46 55 59 56 51 336 264 261 262 266 268 273 276 277 278 275
341 352 331 59 88 31 78 65 336 351 48 219 315 100 51 59 68 81 59 39 29 29 32 32 32 33 33 35 40 47 57 58 59 56 35 323 288 280 282 287 288 288 284 278
26 353 8 339 76 182 56 156 160 255 214 260 338 185 145 118 101 78 62 45 41 34 33 32 33 34 35 37 41 47 50 52 55 56 57 56 50 22 336 310 298 291 288 285
20 283 319 54 353 60 109 10 203 102 46 134 135 81 87 121 98 86 71 58 44 34 29 29 32 34 34 37 40 44 48 48 47 48 50 50 50 49 48 45 33 5 327 300
214 322 320 290 83 41 119 152 17 19 241 256 224 201 178 172 154 122 87 69 52 44 40 35 33 31 34 38 39 41 43 42 40 42 43 43 43 42 42 40 36 33 28 16
346 86 289 332 26 29 356 28 39 112 147 239 250 194 358 195 167 147 126 87 59 44 38 35 33 33 36 36 35 35 36 35 32 32 32 34 34 33 33 32 30 28 26 23
342 131 280 275 297 26 92 101 88 125 263 56 316 218 352 100 142 140 134 101 63 41 23 25 26 32 34 31 31 29 27 26 25 24 24 26 27 25 24 22 21 19 18 20
338 343 358 358 2 22 57 37 74 97 86 225 205 183 87 126 114 117 126 92 43 21 26 28 28 27 25 24 23 21 20 18 16 13 13 15 16 17 16 16 15 13 12 11
172 109 213 223 316 31 304 349 66 142 214 247 230 163 179 145 132 111 89 66 38 27 21 20 20 17 15 14 12 11 10 9 7 6 6 8 8 5 6 6 7 8 6 6
59 250 336 275 274 254 244 265 192 211 242 240 355 161 157 161 143 103 81 42 34 23 20 15 11 8 7 7 4 3 1 1 2 2 1 1 359 359 360 0 359 360 2 1
355 336 2 290 8 353 284 298 272 25 326 273 122 103 118 111 147 116 72 45 30 13 11 8 8 5 0 356 351 349 349 348 347 350 352 351 349 348 349 350 351 353 353 353
10 51 32 275 340 321 280 56 105 102 356 273 209 142 59 63 87 190 203 56 38 19 10 1 358 355 352 351 346 344 341 340 342 343 343 343 341 340 340 337 338 339 339 339
144 109 61 298 337 239 159 10 144 119 71 71 74 71 80 109 280 301 93 41 32 14 358 360 353 344 346 345 346 339 340 341 338 339 339 339 339 336 334 332 332 330 329 328
156 125 76 20 281 297 223 199 95 99 105 27 7 338 337 330 352 340 74 54 34 11 3 351 348 343 338 342 340 340 341 341 337 336 335 333 331 331 331 329 330 331 329 330
89 77 107 150 245 261 187 223 312 152 163 308 256 264 252 168 239 257 20 16 10 10 357 347 343 342 342 341 342 339 338 338 337 333 329 328 329 328 327 326 326 325 326 325
68 37 186 232 251 283 219 288 107 187 159 251 254 247 229 206 216 113 11 17 359 347 348 344 342 339 340 343 347 343 340 338 332 327 325 323 323 323 324 329 330 332 331 329
189 199 215 169 215 269 200 70 5 255 215 272 273 262 250 212 201 83 31 350 346 345 345 346 340 337 336 349 350 346 344 338 337 337 337 340 341 341 339 337 339 343 344 345
255 200 199 187 232 229 232 238 273 300 283 279 255 210 188 203 241 325 328 348 344 335 333 340 340 335 354 355 354 344 342 343 343 342 342 343 348 351 354 352 354 352 357 359
262 164 219 34 258 253 275 271 252 260 239 247 220 193 177 278 332 305 313 318 321 325 333 340 343 357 345 349 351 348 345 350 354 355 358 360 4 6 8 9 10 12 10 11
206 165 200 256 281 282 275 242 249 269 258 225 177 183 203 195 247 250 274 290 299 315 324 327 320 335 347 354 354 355 352 351 357 0 12 16 13 12 15 20 19 20 21 23
183 198 181 226 231 220 252 257 269 265 245 226 202 195 201 205 217 241 264 271 287 298 314 321 319 321 344 354 356 355 358 359 1 4 14 14 12 15 17 15 17 25 26 25